Theta_e
315 319 324 327 327 324 325 328 328 329 332 332 333 356 356 349 349 355 338 358 364 362 354 351 346 341 338 339 342 342 337 329 326 324 326 329 333 333 333 338 340 340 340 341 343 342 340 332 331
318 325 323 326 327 325 326 327 326 329 330 333 339 357 361 369 351 348 345 358 362 361 356 348 342 340 338 338 340 342 340 335 330 325 325 327 332 333 334 339 342 344 345 342 339 336 332 330 330
316 324 326 326 325 324 326 327 327 328 332 338 342 350 352 356 362 361 357 359 359 357 355 345 340 338 336 336 339 342 341 339 337 327 325 327 331 333 334 336 339 340 344 344 338 333 330 329 329
323 325 324 326 326 326 327 327 327 328 329 335 340 348 357 358 358 358 356 356 357 356 359 344 339 337 335 336 339 342 342 341 340 331 325 327 330 331 334 336 338 337 340 337 331 331 329 326 326
322 325 324 324 324 326 327 326 326 327 330 331 335 341 347 355 357 356 357 355 355 359 357 342 336 334 334 335 339 341 342 342 341 333 326 328 330 330 332 334 337 335 334 332 331 330 328 325 327
322 323 324 323 325 326 325 325 325 327 330 331 332 333 333 342 350 350 351 352 352 355 349 337 333 331 331 333 337 340 342 342 342 338 330 329 331 330 330 333 336 336 335 336 334 330 328 324 324
323 324 323 323 324 325 325 325 325 327 330 329 330 331 330 335 341 346 346 346 348 353 354 345 336 332 328 329 332 336 340 341 342 341 338 333 337 336 331 333 335 337 337 337 337 332 330 325 322
321 322 322 324 324 325 325 324 324 325 327 328 328 329 329 329 329 336 341 345 347 347 357 356 350 343 334 332 331 326 329 337 339 340 340 341 342 340 337 335 335 336 336 336 337 336 331 328 324
322 320 322 323 324 325 325 324 324 325 325 326 327 326 326 325 326 327 332 332 335 337 340 352 356 355 353 348 347 332 329 327 327 335 336 337 339 342 340 338 336 337 335 333 336 337 333 329 327
320 320 322 324 325 325 325 324 325 324 324 325 325 325 325 326 326 327 326 326 326 326 328 327 329 339 344 345 354 346 336 338 333 326 333 335 340 342 343 344 340 334 334 338 338 336 334 331 330
322 320 324 323 323 324 324 324 324 323 327 328 327 327 326 326 327 328 329 329 330 331 333 332 332 331 337 341 348 357 357 339 351 345 341 342 345 340 339 338 341 340 339 339 342 340 337 336 337
322 323 323 323 322 321 322 323 323 323 328 328 328 328 329 330 331 331 332 331 331 332 333 333 333 332 332 331 340 339 351 349 348 337 351 348 348 347 347 343 341 344 345 346 346 345 343 341 337
323 325 323 324 323 323 323 323 323 326 328 327 328 328 330 332 331 331 331 332 332 332 333 333 333 331 332 332 333 332 341 347 354 350 341 330 335 345 350 348 345 346 348 349 347 344 344 344 342
327 326 325 324 325 325 324 324 323 328 327 327 328 329 330 330 331 330 330 331 331 331 332 333 332 331 332 334 334 334 334 340 343 344 344 344 345 337 353 351 351 349 348 347 347 346 344 343 343
324 324 324 325 325 326 325 326 325 328 327 328 328 329 329 329 329 329 329 330 330 330 331 331 331 331 332 334 334 334 333 332 333 340 341 349 352 355 352 353 353 353 352 349 348 347 345 344 343
324 324 325 326 325 325 325 325 327 328 328 328 328 328 328 330 329 329 328 328 328 329 330 331 332 332 332 333 333 333 334 334 333 332 336 342 342 344 349 352 351 348 354 351 349 349 348 345 344
328 327 328 327 326 326 326 325 330 329 328 328 328 328 329 329 329 328 328 327 327 327 328 329 331 331 333 333 332 333 333 332 333 334 331 332 341 344 347 352 350 346 350 352 352 349 347 347 346
329 329 327 326 326 325 325 325 330 329 327 327 327 328 328 329 328 328 327 326 326 326 326 327 329 330 331 332 332 332 332 332 333 334 334 332 331 340 341 353 351 349 347 351 347 348 349 346 345
324 326 324 325 326 325 325 324 324 328 328 328 327 328 328 328 327 327 327 326 325 325 325 326 325 328 330 331 332 332 332 332 332 332 332 333 334 341 342 339 349 350 349 349 347 348 346 348 347
324 324 325 325 325 324 325 324 324 324 328 328 328 327 328 327 327 326 325 325 324 324 324 324 325 325 328 329 330 330 332 332 332 332 330 329 329 329 333 344 343 348 350 348 346 344 348 348 347
325 325 325 325 324 323 323 324 326 326 328 328 328 327 327 327 326 327 326 324 324 323 324 323 324 325 326 327 330 329 328 328 328 331 332 333 333 334 335 334 340 346 346 347 346 347 348 348 348
324 327 326 322 323 324 324 325 324 327 329 329 329 328 327 326 324 325 325 324 323 323 322 324 323 325 326 326 328 327 328 327 327 326 328 328 330 332 333 334 334 342 343 344 345 346 345 346 347
321 322 321 321 323 324 326 325 327 331 335 332 332 330 327 324 324 324 322 322 322 321 321 322 321 322 325 326 326 327 327 326 325 325 326 326 328 328 332 334 334 329 334 342 343 343 344 343 344
319 320 325 327 327 331 330 328 330 332 334 332 331 328 324 324 324 324 322 322 322 321 322 322 321 320 321 324 325 326 327 327 327 326 325 324 324 326 328 327 328 335 334 333 342 344 344 343 344
324 327 331 328 330 329 330 329 333 331 330 328 327 324 325 324 323 322 323 322 322 322 322 322 321 322 321 321 321 322 324 323 323 324 324 323 323 325 327 329 332 333 336 337 335 338 340 343 343
324 324 344 332 325 325 324 329 331 328 328 327 325 325 324 324 322 322 322 321 321 321 322 322 322 321 320 320 321 321 321 321 320 319 319 320 320 321 321 324 325 327 328 330 334 337 339 341 343
331 330 326 326 330 328 324 330 329 329 329 328 326 325 325 324 323 322 322 321 321 322 323 323 322 321 321 320 320 319 317 316 315 314 314 314 316 318 319 321 322 326 329 331 333 333 337 339 341
323 325 327 336 340 334 325 327 334 331 330 328 326 325 324 323 321 322 321 321 321 321 321 322 321 320 320 318 316 315 314 313 313 312 312 312 312 313 315 317 317 322 324 326 328 332 335 337 339
328 327 326 328 327 343 335 327 327 329 330 328 326 325 324 322 321 321 321 320 321 322 321 321 321 319 318 315 313 312 312 311 310 310 310 310 311 312 314 316 318 319 321 324 327 330 334 335 339
319 321 324 328 329 338 337 335 326 327 326 327 326 325 322 321 321 320 320 320 321 322 321 320 320 317 315 312 310 309 309 309 308 308 309 309 310 311 312 314 316 318 320 322 326 329 333 334 337
Wind_Speed
11 12 12 15 6 7 15 18 9 3 1 8 12 16 22 7 10 7 20 16 25 19 17 15 13 12 10 8 9 10 10 10 10 12 12 13 12 11 12 11 11 10 8 7 7 7 6 5 4
11 17 13 7 8 11 11 8 7 10 11 11 9 22 23 13 11 4 6 6 21 16 16 15 14 11 10 8 8 10 12 11 11 13 14 14 14 13 12 11 10 8 7 7 7 6 6 5 5
11 13 8 7 11 14 6 13 14 7 3 6 9 21 9 9 16 20 14 18 19 16 15 13 14 12 9 8 7 10 12 13 12 13 14 14 13 13 12 12 11 9 8 8 7 6 7 7 6
9 7 6 8 16 16 9 12 7 4 2 3 10 14 16 13 14 17 19 15 20 20 13 11 11 10 8 6 5 8 11 12 12 13 14 14 14 13 12 11 11 10 10 9 9 8 8 8 8
12 7 11 14 15 4 7 7 6 8 6 4 2 16 15 14 17 14 15 16 18 21 13 12 9 8 7 6 6 6 10 12 12 12 14 15 14 14 14 13 13 12 11 10 11 10 10 10 10
8 8 11 13 17 9 6 5 8 6 6 7 2 14 11 7 8 15 13 16 17 20 14 10 9 8 7 7 6 7 9 11 13 13 15 16 16 16 16 16 15 14 14 12 13 13 12 12 11
12 11 15 18 12 9 7 6 8 5 2 12 12 8 9 13 6 8 10 10 13 17 16 13 13 11 10 10 10 10 10 12 14 15 15 17 17 17 17 17 17 17 16 15 15 14 14 14 14
11 11 18 17 15 3 14 3 6 6 11 7 5 10 10 8 12 3 8 13 16 14 21 14 16 14 14 15 13 14 14 15 16 17 17 18 18 18 18 19 19 19 18 17 17 17 16 16 16
10 9 12 17 15 9 12 2 8 6 8 2 8 15 9 8 10 15 5 3 4 4 6 17 16 18 12 18 14 16 16 15 18 20 21 20 20 18 19 21 20 19 20 19 19 19 18 18 18
9 10 15 14 15 11 11 5 7 1 8 4 7 10 5 8 6 11 7 10 18 23 28 28 23 15 10 14 13 16 13 14 17 20 17 18 16 16 17 18 18 21 21 20 20 21 20 19 21
9 13 10 6 11 10 7 3 1 4 6 13 14 12 12 7 9 14 21 21 23 24 25 25 25 22 17 13 10 11 12 10 18 13 13 17 14 16 19 21 21 25 22 23 22 22 24 22 21
9 8 6 3 8 4 3 5 2 1 11 10 11 12 12 13 13 18 20 21 21 20 22 23 22 20 18 16 15 18 9 13 21 9 10 14 16 16 18 21 21 22 24 22 24 23 22 22 24
8 6 2 2 1 4 6 4 6 8 8 6 7 8 10 10 13 13 13 14 14 14 15 16 16 16 16 18 20 21 19 14 12 11 20 22 31 19 20 21 20 18 23 27 26 24 27 30 26
7 5 4 5 7 4 6 7 1 11 5 4 5 8 9 10 10 11 12 12 13 12 12 14 14 14 16 17 20 21 21 19 18 11 16 16 30 43 25 21 20 20 22 21 18 25 26 26 27
7 9 8 6 5 3 3 8 11 11 5 5 5 5 6 6 10 12 12 11 11 12 13 15 15 15 16 16 19 21 21 19 22 18 17 24 29 18 19 19 17 17 21 21 21 21 19 17 18
10 10 12 14 5 8 2 12 14 9 7 6 3 6 0 8 9 10 12 11 11 11 12 14 14 16 17 18 21 22 22 21 21 24 21 19 18 22 20 20 22 24 22 23 19 19 18 21 19
9 10 10 11 11 1 4 10 14 10 7 6 2 5 6 3 8 9 10 12 11 12 13 14 16 16 18 21 22 22 23 23 23 22 23 26 21 17 22 25 25 29 28 20 15 18 23 21 19
11 7 2 3 11 8 8 13 14 13 7 5 5 1 2 3 3 5 5 9 11 13 13 14 15 16 17 19 21 21 21 21 21 22 23 24 25 24 26 21 25 25 29 25 24 25 19 23 24
9 9 7 6 3 3 8 11 13 12 10 5 7 7 2 2 4 7 8 7 7 11 13 13 15 15 17 18 20 19 22 25 27 28 29 27 19 13 25 32 20 22 27 27 26 22 26 23 21
8 7 9 4 3 3 10 14 15 12 12 7 7 3 3 5 5 8 9 9 7 8 12 11 13 14 14 17 20 21 21 22 25 27 29 27 29 30 27 20 27 22 21 29 27 28 21 22 23
8 7 9 10 12 12 17 17 17 13 10 7 4 3 5 6 4 7 9 7 10 12 11 15 12 13 14 20 17 20 23 24 25 23 24 22 24 24 21 23 23 28 31 22 25 26 27 21 22
10 11 4 9 10 11 15 11 15 14 11 9 7 3 4 4 8 9 10 12 13 13 15 9 13 15 17 18 17 19 18 18 22 28 27 33 29 26 24 22 22 26 33 31 31 27 30 29 22
10 8 10 11 12 13 14 8 3 13 12 15 8 11 9 7 9 10 11 14 14 14 16 13 13 15 17 20 22 20 18 20 21 22 26 30 30 31 26 26 30 31 28 30 32 35 30 32 30
8 10 14 16 12 10 12 7 6 6 10 13 13 10 7 9 11 10 13 14 12 18 15 13 12 16 18 18 20 24 22 21 21 22 24 27 29 30 30 31 30 30 31 29 28 31 35 31 30
10 12 6 4 8 7 12 3 8 8 10 6 1 5 10 11 13 14 14 16 18 17 15 15 18 15 17 21 23 23 23 24 26 25 24 25 27 26 27 27 25 24 22 27 32 30 32 31 32
7 4 1 3 6 11 15 8 6 10 7 1 1 7 11 11 12 13 13 17 19 18 14 15 16 18 20 22 24 22 24 24 22 25 25 27 28 31 33 34 35 32 30 29 24 25 29 29 32
1 3 6 2 7 5 7 5 10 14 10 10 11 13 12 11 11 13 13 15 17 17 17 16 18 21 22 24 25 25 25 26 27 30 33 32 32 30 32 32 33 32 27 24 24 27 26 28 30
8 4 4 3 2 5 9 6 2 6 1 5 8 11 11 11 13 12 13 16 16 18 19 19 22 23 25 26 26 29 31 29 30 31 32 33 34 34 34 35 36 32 32 31 28 27 27 26 29
9 10 5 3 3 2 4 3 5 5 7 8 11 11 13 13 14 12 13 17 19 19 21 23 23 24 26 27 28 30 30 31 31 32 33 33 34 34 33 33 32 31 33 30 29 29 27 25 26
9 10 6 3 7 4 5 7 10 5 8 8 11 11 13 14 15 14 18 22 23 20 21 23 23 25 27 27 30 30 32 33 34 33 32 33 33 33 33 32 32 31 30 30 29 28 26 25 26
Wind_Direction
274 281 258 261 254 229 257 251 79 349 145 13 332 57 55 326 131 157 222 279 115 127 148 154 148 148 150 157 170 176 180 179 179 180 180 172 169 169 166 164 161 160 166 169 170 172 177 175 174
278 285 249 278 253 266 260 100 116 40 1 328 276 99 152 100 88 314 240 116 106 126 137 152 151 153 153 161 175 185 189 188 189 189 189 186 182 181 181 178 177 181 188 188 188 192 197 195 193
271 274 271 232 238 260 25 39 29 31 332 295 321 65 40 5 99 140 126 109 116 127 145 150 151 155 158 161 177 188 195 196 199 196 195 195 194 195 194 193 197 205 205 207 210 212 209 210 211
251 219 248 252 262 256 54 59 1 293 178 297 340 83 67 58 81 95 111 129 136 131 139 144 150 154 156 163 178 189 201 204 206 207 203 204 204 204 209 210 210 214 216 219 217 221 223 223 225
242 272 249 269 257 256 52 60 313 315 7 336 19 82 71 68 98 101 118 122 118 110 119 143 150 156 164 167 178 191 200 208 215 214 212 212 215 217 217 218 220 221 223 227 228 229 230 230 230
240 232 268 260 245 107 79 48 302 292 42 42 329 76 73 73 43 100 96 99 98 105 125 136 152 167 181 189 195 197 204 210 218 220 220 220 223 224 225 225 226 227 230 234 233 235 236 237 238
253 263 263 285 298 106 99 53 290 342 21 46 353 101 102 63 38 66 110 112 122 136 147 151 167 173 184 196 209 215 215 217 223 225 225 226 230 231 231 231 231 232 234 238 240 240 243 244 244
248 276 279 275 279 340 103 105 47 302 42 57 330 13 81 62 337 192 202 161 160 157 148 162 174 181 187 190 200 210 220 228 229 230 232 234 234 235 236 237 236 235 236 238 241 244 244 247 251
272 268 262 262 245 103 115 214 123 26 298 47 46 64 40 17 340 326 27 263 169 103 210 156 183 171 180 218 197 205 211 225 237 239 238 236 237 243 243 241 236 240 243 244 245 246 246 245 250
233 236 268 8 13 32 78 340 69 330 224 205 174 110 82 351 17 328 348 341 22 31 30 31 23 23 350 353 210 205 214 218 234 241 249 254 246 243 237 242 241 240 242 247 249 248 249 247 246
224 247 357 32 16 6 27 97 192 306 26 25 9 33 40 353 37 3 15 20 20 23 21 12 15 6 1 331 331 200 214 280 256 231 229 241 245 242 248 249 250 234 234 239 245 248 246 246 247
263 251 316 48 69 325 298 287 32 359 63 27 37 31 31 19 39 23 15 18 12 15 16 4 6 357 338 324 313 327 292 200 267 221 262 271 242 243 246 242 232 227 227 233 226 234 242 248 240
247 264 236 45 316 254 313 280 265 103 53 60 61 47 71 37 36 53 30 31 19 15 14 359 354 350 350 333 319 303 313 316 237 176 200 239 262 250 244 248 249 239 232 226 226 220 227 234 237
349 330 196 238 238 142 255 223 201 103 143 114 77 46 54 70 51 37 37 29 24 14 16 357 350 352 345 335 327 322 309 311 310 285 220 215 236 235 210 237 242 242 257 272 241 222 226 226 222
281 265 233 216 235 200 280 228 185 116 171 140 132 118 108 61 50 39 22 24 23 4 4 356 347 343 342 332 317 313 311 299 299 299 286 214 216 239 241 239 248 252 242 243 263 274 272 247 232
238 223 246 181 156 145 244 274 139 133 174 202 134 154 190 107 70 34 13 12 11 1 356 348 342 337 333 330 321 313 302 297 292 286 289 278 261 241 238 231 240 257 271 251 241 254 272 260 251
204 237 196 158 170 116 193 299 128 164 171 253 184 219 121 22 54 69 6 356 357 356 355 344 340 338 334 326 319 310 302 296 291 289 286 276 275 272 247 232 245 243 252 273 255 238 247 266 261
343 315 340 134 154 177 252 265 174 175 203 225 226 168 11 84 3 22 3 344 342 350 349 344 338 333 334 328 318 317 312 308 304 298 284 273 271 263 267 233 229 236 239 248 256 247 243 244 254
309 298 294 306 88 25 276 280 294 184 173 200 201 177 188 8 347 342 345 311 329 339 336 335 333 332 334 329 318 330 322 315 313 309 306 302 305 309 255 255 270 236 229 234 239 248 241 240 242
300 289 269 246 241 242 266 261 269 264 177 182 156 147 43 358 335 323 313 324 333 334 328 327 323 325 326 320 316 305 302 302 297 290 292 304 303 294 285 284 253 258 246 234 239 245 236 238 237
255 267 316 340 333 302 264 260 247 223 123 120 118 146 240 249 318 326 333 348 2 345 333 328 330 333 325 316 317 323 325 321 316 315 317 311 308 306 302 291 270 259 253 255 245 245 239 234 234
295 11 345 295 288 283 335 303 296 174 153 155 300 138 271 328 342 354 333 0 351 333 335 344 351 342 326 317 309 306 304 303 306 313 312 312 316 313 305 301 290 268 257 256 252 253 244 235 233
289 4 305 286 280 284 281 264 354 111 80 87 195 244 247 348 348 337 354 341 333 346 328 350 354 346 340 325 313 300 288 288 288 294 303 308 311 300 303 298 287 280 274 258 254 252 252 238 236
299 289 264 243 241 250 311 277 143 125 152 172 214 229 315 346 333 352 349 329 351 332 317 335 348 342 331 323 326 319 318 306 297 295 293 296 294 291 291 287 284 276 271 266 259 255 255 247 238
232 259 290 291 222 231 230 216 101 140 150 94 89 325 351 347 348 349 337 348 341 319 336 335 339 331 341 333 322 315 316 316 309 301 298 294 291 288 290 288 297 293 288 271 265 255 256 252 241
306 324 117 228 343 321 318 340 97 76 68 26 40 353 350 336 343 339 348 347 325 326 331 346 338 346 333 327 319 314 310 307 304 303 307 302 292 287 288 288 291 293 294 293 286 274 258 253 248
268 298 64 286 298 290 258 74 106 63 41 16 345 340 326 337 343 339 349 329 327 336 351 349 357 341 333 332 328 325 321 314 305 298 295 294 291 284 283 283 280 282 293 288 286 276 270 254 250
252 29 242 140 288 295 323 345 81 176 74 253 310 312 315 334 341 357 336 330 347 342 338 354 349 344 338 334 330 322 310 304 301 296 291 286 281 280 281 280 281 282 281 280 283 283 267 260 252
192 224 212 320 315 263 304 319 52 118 206 328 327 331 307 344 347 340 325 339 347 348 352 350 349 347 337 332 324 314 308 307 302 297 292 287 282 277 273 271 268 272 275 274 269 267 270 260 255
311 301 303 289 283 185 264 269 307 306 32 289 277 289 346 343 340 342 352 351 339 347 352 347 347 343 334 327 318 313 307 303 300 293 288 285 281 278 274 271 269 267 267 269 269 264 261 257 252